Regional Weather Roundup
Issued by NWS Charleston, WV

Home | Current Version | Previous Version | Text Only | Print | Product List | Glossary Off
Versions: 1 2 3 4 5 6 7 8 9 10 11 12 13 14 15 16 17 18 19 20 21 22 23 24 25 26 27 28

000
ASUS41 KRLX 241510
RWRRLX
West Virginia Regional Weather Roundup
National Weather Service Charleston WV
1100 AM EDT THU APR 24 2014

Note: "fair" indicates few or no clouds below 12,000 feet with no
significant weather and/or obstructions to visibility.

WVZ003-241600-
Northern Panhandle of West Virginia

CITY           SKY/WX    TMP DP  RH WIND       PRES   REMARKS
WHEELING       PTSUNNY   43  21  41 E7        30.17F
$$

WVZ009-241600-
Northwest West Virginia

CITY           SKY/WX    TMP DP  RH WIND       PRES   REMARKS
PARKERSBURG    MOSUNNY   50  18  28 VRB6      30.19F
$$

WVZ006-241600-
Western West Virginia

CITY           SKY/WX    TMP DP  RH WIND       PRES   REMARKS
HUNTINGTON     PTSUNNY   54  26  34 E10       30.12F
$$

WVZ015-241600-
West Central West Virginia

CITY           SKY/WX    TMP DP  RH WIND       PRES   REMARKS
CHARLESTON     PTSUNNY   53  28  38 N6        30.13F
$$

WVZ031-241600-
North Central West Virginia

CITY           SKY/WX    TMP DP  RH WIND       PRES   REMARKS
CLARKSBURG     MOSUNNY   48  24  39 VRB3      30.16S
MORGANTOWN     PTSUNNY   46  21  37 NE5       30.18F
$$

WVZ035-042-045-241600-
South Central West Virginia

CITY           SKY/WX    TMP DP  RH WIND       PRES   REMARKS
BECKLEY        CLOUDY    49  26  41 E8        30.11S
BLUEFIELD      CLOUDY    54  28  36 E7        30.12S
LEWISBURG      CLOUDY    46  31  56 CALM      30.13R
$$

WVZ047-241600-
Northern Mountains of West Virginia

CITY           SKY/WX    TMP DP  RH WIND       PRES   REMARKS
ELKINS         PTSUNNY   47  25  42 CALM      30.14F
$$

WVZ052-241600-
Eastern Panhandle of West Virginia

CITY           SKY/WX    TMP DP  RH WIND       PRES   REMARKS
MARTINSBURG    MOSUNNY   52  17  25 N12       30.14F
PETERSBURG     CLOUDY    54  29  37 CALM      30.16F
$$



USA.gov is the U.S. government's official web portal to all federal, state and local government web resources and services.